Year,Month,Day,Hour,Minute,Value (Times are PST for temperature in C)
2010,06,29,00,00,13.30
2010,06,29,00,01,13.30
2010,06,29,00,02,13.30
2010,06,29,00,03,13.30
2010,06,29,00,04,13.30
2010,06,29,00,05,13.30
2010,06,29,00,06,13.30
2010,06,29,00,07,13.20
2010,06,29,00,08,13.20
2010,06,29,00,09,13.20
2010,06,29,00,10,13.20
2010,06,29,00,11,13.20
2010,06,29,00,12,13.20
2010,06,29,00,13,13.20
2010,06,29,00,14,13.20
2010,06,29,00,15,13.20
2010,06,29,00,16,13.20
2010,06,29,00,17,13.20
2010,06,29,00,18,13.20
2010,06,29,00,19,13.20
2010,06,29,00,20,13.20
2010,06,29,00,21,13.20
2010,06,29,00,22,13.10
2010,06,29,00,23,13.10
2010,06,29,00,24,13.10
2010,06,29,00,25,13.10
2010,06,29,00,26,13.10
2010,06,29,00,27,13.10
2010,06,29,00,28,13.10
2010,06,29,00,29,13.10
2010,06,29,00,30,13.00
2010,06,29,00,31,13.00
2010,06,29,00,32,13.00
2010,06,29,00,33,13.00
2010,06,29,00,34,13.00
2010,06,29,00,35,13.00
2010,06,29,00,36,12.90
2010,06,29,00,37,12.90
2010,06,29,00,38,12.90
2010,06,29,00,39,12.90
2010,06,29,00,40,12.90
2010,06,29,00,41,12.90
2010,06,29,00,42,12.90
2010,06,29,00,43,12.90
2010,06,29,00,44,12.80
2010,06,29,00,45,12.80
2010,06,29,00,46,12.80
2010,06,29,00,47,12.80
2010,06,29,00,48,12.80
2010,06,29,00,49,12.80
2010,06,29,00,50,12.80
2010,06,29,00,51,12.70
2010,06,29,00,52,12.70
2010,06,29,00,53,12.70
2010,06,29,00,54,12.70
2010,06,29,00,55,12.70
2010,06,29,00,56,12.70
2010,06,29,00,57,12.70
2010,06,29,00,58,12.70
2010,06,29,00,59,12.70
2010,06,29,01,00,12.60
2010,06,29,01,01,12.60
2010,06,29,01,02,12.60
2010,06,29,01,03,12.60
2010,06,29,01,04,12.60
2010,06,29,01,05,12.60
2010,06,29,01,06,12.60
2010,06,29,01,07,12.60
2010,06,29,01,08,12.60
2010,06,29,01,09,12.50
2010,06,29,01,10,12.50
2010,06,29,01,11,12.50
2010,06,29,01,12,12.50
2010,06,29,01,13,12.50
2010,06,29,01,14,12.50
2010,06,29,01,15,12.50
2010,06,29,01,16,12.50
2010,06,29,01,17,12.50
2010,06,29,01,18,12.50
2010,06,29,01,19,12.40
2010,06,29,01,20,12.40
2010,06,29,01,21,12.40
2010,06,29,01,22,12.40
2010,06,29,01,23,12.40
2010,06,29,01,24,12.40
2010,06,29,01,25,12.40
2010,06,29,01,26,12.40
2010,06,29,01,27,12.30
2010,06,29,01,28,12.30
2010,06,29,01,29,12.30
2010,06,29,01,30,12.30
2010,06,29,01,31,12.30
2010,06,29,01,32,12.30
2010,06,29,01,33,12.30
2010,06,29,01,34,12.30
2010,06,29,01,35,12.20
2010,06,29,01,36,12.20
2010,06,29,01,37,12.20
2010,06,29,01,38,12.20
2010,06,29,01,39,12.20
2010,06,29,01,40,12.20
2010,06,29,01,41,12.10
2010,06,29,01,42,12.10
2010,06,29,01,43,12.10
2010,06,29,01,44,12.10
2010,06,29,01,45,12.10
2010,06,29,01,46,12.10
2010,06,29,01,47,12.10
2010,06,29,01,48,12.10
2010,06,29,01,49,12.10
2010,06,29,01,50,12.00
2010,06,29,01,51,12.00
2010,06,29,01,52,12.00
2010,06,29,01,53,12.00
2010,06,29,01,54,12.00
2010,06,29,01,55,11.90
2010,06,29,01,56,11.90
2010,06,29,01,57,11.90
2010,06,29,01,58,11.90
2010,06,29,01,59,11.90
2010,06,29,02,00,11.90
2010,06,29,02,01,11.90
2010,06,29,02,02,11.90
2010,06,29,02,03,11.90
2010,06,29,02,04,11.90
2010,06,29,02,05,11.90
2010,06,29,02,06,11.90
2010,06,29,02,07,11.80
2010,06,29,02,08,11.80
2010,06,29,02,09,11.80
2010,06,29,02,10,11.80
2010,06,29,02,11,11.80
2010,06,29,02,12,11.80
2010,06,29,02,13,11.80
2010,06,29,02,14,11.80
2010,06,29,02,15,11.80
2010,06,29,02,16,11.80
2010,06,29,02,17,11.80
2010,06,29,02,18,11.80
2010,06,29,02,19,11.80
2010,06,29,02,20,11.80
2010,06,29,08,33,12.70
2010,06,29,08,34,12.80
2010,06,29,08,35,12.80
2010,06,29,08,36,12.90
2010,06,29,08,37,12.90
2010,06,29,08,38,12.90
2010,06,29,08,39,13.00
2010,06,29,08,40,13.00
2010,06,29,08,41,13.10
2010,06,29,08,42,13.10
2010,06,29,08,43,13.20
2010,06,29,08,44,13.20
2010,06,29,08,45,13.20
2010,06,29,08,46,13.20
2010,06,29,08,47,13.20
2010,06,29,08,48,13.30
2010,06,29,08,49,13.30
2010,06,29,08,50,13.30
2010,06,29,08,51,13.30
2010,06,29,08,52,13.40
2010,06,29,08,53,13.40
2010,06,29,08,54,13.40
2010,06,29,08,55,13.50
2010,06,29,08,56,13.50
2010,06,29,08,57,13.60
2010,06,29,08,58,13.60
2010,06,29,08,59,13.60
2010,06,29,09,00,13.70
2010,06,29,09,01,13.70
2010,06,29,09,02,13.70
2010,06,29,09,03,13.70
2010,06,29,09,04,13.80
2010,06,29,09,05,13.80
2010,06,29,09,06,13.80
2010,06,29,09,07,13.90
2010,06,29,09,08,13.90
2010,06,29,09,09,14.00
2010,06,29,09,10,14.10
2010,06,29,09,11,14.20
2010,06,29,09,12,14.20
2010,06,29,09,13,14.30
2010,06,29,09,14,14.30
2010,06,29,09,15,14.30
2010,06,29,09,16,14.20
2010,06,29,09,17,14.20
2010,06,29,09,18,14.20
2010,06,29,09,19,14.20
2010,06,29,09,20,14.20
2010,06,29,09,21,14.20
2010,06,29,09,22,14.20
2010,06,29,09,23,14.20
2010,06,29,09,24,14.20
2010,06,29,09,25,14.30
2010,06,29,09,26,14.30
2010,06,29,09,27,14.30
2010,06,29,09,28,14.40
2010,06,29,09,29,14.50
2010,06,29,09,30,14.50
2010,06,29,09,31,14.60
2010,06,29,09,32,14.60
2010,06,29,09,33,14.70
2010,06,29,09,34,14.70
2010,06,29,09,35,14.70
2010,06,29,09,36,14.80
2010,06,29,09,37,14.80
2010,06,29,09,38,14.80
2010,06,29,09,39,14.80
2010,06,29,09,40,14.80
2010,06,29,09,41,14.80
2010,06,29,09,42,14.80
2010,06,29,09,43,14.80
2010,06,29,09,44,14.80
2010,06,29,09,45,14.80
2010,06,29,09,46,14.70
2010,06,29,09,47,14.80
2010,06,29,09,48,14.80
2010,06,29,09,49,14.80
2010,06,29,09,50,14.70
2010,06,29,09,51,14.70
2010,06,29,09,52,14.70
2010,06,29,09,53,14.70
2010,06,29,09,54,14.80
2010,06,29,09,55,14.80
2010,06,29,09,56,14.90
2010,06,29,09,57,14.90
2010,06,29,09,58,14.90
2010,06,29,09,59,14.90
2010,06,29,10,00,15.00
2010,06,29,10,01,15.00
2010,06,29,10,02,15.10
2010,06,29,10,03,15.10
2010,06,29,10,04,15.10
2010,06,29,10,05,15.10
2010,06,29,10,06,15.10
2010,06,29,10,07,15.00
2010,06,29,10,08,15.00
2010,06,29,10,09,15.00
2010,06,29,10,10,15.00
2010,06,29,10,11,15.00
2010,06,29,10,12,15.10
2010,06,29,10,13,15.10
2010,06,29,10,14,15.20
2010,06,29,10,15,15.20
2010,06,29,10,16,15.20
2010,06,29,10,17,15.20
2010,06,29,10,18,15.20
2010,06,29,10,19,15.30
2010,06,29,10,20,15.30
2010,06,29,10,21,15.20
2010,06,29,10,22,15.20
2010,06,29,10,23,15.30
2010,06,29,10,24,15.30
2010,06,29,10,25,15.40
2010,06,29,10,26,15.40
2010,06,29,10,27,15.50
2010,06,29,10,28,15.50
2010,06,29,10,29,15.50
2010,06,29,10,30,15.50
2010,06,29,10,31,15.50
2010,06,29,10,32,15.50
2010,06,29,10,33,15.50
2010,06,29,10,34,15.50
2010,06,29,10,35,15.50
2010,06,29,10,36,15.50
2010,06,29,10,37,15.50
2010,06,29,10,38,15.50
2010,06,29,10,39,15.60
2010,06,29,10,40,15.50
2010,06,29,10,41,15.50
2010,06,29,10,42,15.60
2010,06,29,10,43,15.60
2010,06,29,10,44,15.60
2010,06,29,10,45,15.70
2010,06,29,10,46,15.60
2010,06,29,10,47,15.60
2010,06,29,10,48,15.60
2010,06,29,10,49,15.60
2010,06,29,10,50,15.60
2010,06,29,10,51,15.60
2010,06,29,10,52,15.60
2010,06,29,10,53,15.60
2010,06,29,10,54,15.60
2010,06,29,10,55,15.60
2010,06,29,10,56,15.60
2010,06,29,10,57,15.60
2010,06,29,10,58,15.70
2010,06,29,10,59,15.70
2010,06,29,11,00,15.70
2010,06,29,11,01,15.80
2010,06,29,11,02,15.80
2010,06,29,11,03,15.80
2010,06,29,11,04,15.90
2010,06,29,11,05,15.90
2010,06,29,11,06,15.90
2010,06,29,11,07,15.90
2010,06,29,11,08,16.00
2010,06,29,11,09,16.00
2010,06,29,11,10,16.10
2010,06,29,11,11,16.10
2010,06,29,11,12,16.10
2010,06,29,11,13,16.20
2010,06,29,11,14,16.30
2010,06,29,11,15,16.30
2010,06,29,11,16,16.40
2010,06,29,11,17,16.40
2010,06,29,11,18,16.50
2010,06,29,11,19,16.50
2010,06,29,11,20,16.60
2010,06,29,11,21,16.60
2010,06,29,11,22,16.70
2010,06,29,11,23,16.70
2010,06,29,11,24,16.70
2010,06,29,11,25,16.70
2010,06,29,11,26,16.80
2010,06,29,11,27,16.70
2010,06,29,11,28,16.70
2010,06,29,11,29,16.70
2010,06,29,11,30,16.70
2010,06,29,11,31,16.80
2010,06,29,11,32,16.80
2010,06,29,11,33,16.90
2010,06,29,11,34,16.90
2010,06,29,11,35,16.90
2010,06,29,11,36,16.90
2010,06,29,11,37,16.80
2010,06,29,11,38,16.70
2010,06,29,11,39,16.70
2010,06,29,11,40,16.70
2010,06,29,11,41,16.70
2010,06,29,11,42,16.80
2010,06,29,11,43,16.90
2010,06,29,11,44,16.90
2010,06,29,11,45,16.90
2010,06,29,11,46,17.00
2010,06,29,11,47,17.00
2010,06,29,11,48,16.90
2010,06,29,11,49,17.00
2010,06,29,11,50,17.10
2010,06,29,11,51,17.10
2010,06,29,11,52,17.10
2010,06,29,11,53,17.10
2010,06,29,11,54,17.10
2010,06,29,11,55,17.10
2010,06,29,11,56,17.10
2010,06,29,11,57,17.10
2010,06,29,11,58,17.10
2010,06,29,11,59,17.10
2010,06,29,12,00,17.10
2010,06,29,12,01,17.10
2010,06,29,12,02,17.10
2010,06,29,12,03,17.20
2010,06,29,12,04,17.30
2010,06,29,12,05,17.30
2010,06,29,12,06,17.30
2010,06,29,12,07,17.30
2010,06,29,12,08,17.30
2010,06,29,12,09,17.20
2010,06,29,12,10,17.10
2010,06,29,12,11,17.00
2010,06,29,12,12,17.00
2010,06,29,12,13,17.00
2010,06,29,12,14,17.10
2010,06,29,12,15,17.20
2010,06,29,12,16,17.30
2010,06,29,12,17,17.30
2010,06,29,12,18,17.30
2010,06,29,12,19,17.30
2010,06,29,12,20,17.30
2010,06,29,12,21,17.30
2010,06,29,12,22,17.40
2010,06,29,12,23,17.40
2010,06,29,12,24,17.40
2010,06,29,12,25,17.40
2010,06,29,12,26,17.40
2010,06,29,12,27,17.50
2010,06,29,12,28,17.60
2010,06,29,12,29,17.70
2010,06,29,12,30,17.70
2010,06,29,12,31,17.60
2010,06,29,12,32,17.60
2010,06,29,12,33,17.50
2010,06,29,12,34,17.50
2010,06,29,12,35,17.40
2010,06,29,12,36,17.40
2010,06,29,12,37,17.40
2010,06,29,12,38,17.40
2010,06,29,12,39,17.40
2010,06,29,12,40,17.30
2010,06,29,12,41,17.30
2010,06,29,12,42,17.20
2010,06,29,12,43,17.20
2010,06,29,12,44,17.10
2010,06,29,12,45,17.00
2010,06,29,12,46,16.90
2010,06,29,12,47,16.90
2010,06,29,12,48,16.80
2010,06,29,12,49,16.70
2010,06,29,12,50,16.70
2010,06,29,12,51,16.80
2010,06,29,12,52,16.80
2010,06,29,12,53,16.90
2010,06,29,12,54,16.90
2010,06,29,12,55,16.90
2010,06,29,12,56,16.90
2010,06,29,12,57,16.90
2010,06,29,12,58,17.00
2010,06,29,12,59,17.20
2010,06,29,13,00,17.30
2010,06,29,13,01,17.30
2010,06,29,13,02,17.40
2010,06,29,13,03,17.40
2010,06,29,13,04,17.40
2010,06,29,13,05,17.50
2010,06,29,13,06,17.50
2010,06,29,13,07,17.40
2010,06,29,13,08,17.40
2010,06,29,13,09,17.50
2010,06,29,13,10,17.50
2010,06,29,13,11,17.60
2010,06,29,13,12,17.70
2010,06,29,13,13,17.60
2010,06,29,13,14,17.60
2010,06,29,13,15,17.60
2010,06,29,13,16,17.70
2010,06,29,13,17,17.80
2010,06,29,13,18,17.80
2010,06,29,13,19,17.80
2010,06,29,13,20,17.80
2010,06,29,13,21,17.80
2010,06,29,13,22,17.90
2010,06,29,13,23,18.00
2010,06,29,13,24,18.10
2010,06,29,13,25,18.20
2010,06,29,13,26,18.30
2010,06,29,13,27,18.20
2010,06,29,13,28,18.10
2010,06,29,13,29,18.00
2010,06,29,13,30,17.90
2010,06,29,13,31,17.80
2010,06,29,13,32,17.60
2010,06,29,13,33,17.40
2010,06,29,13,34,17.30
2010,06,29,13,35,17.20
2010,06,29,13,36,17.00
2010,06,29,13,37,16.90
2010,06,29,13,38,16.80
2010,06,29,13,39,16.80
2010,06,29,13,40,16.80
2010,06,29,13,41,16.80
2010,06,29,13,42,16.80
2010,06,29,13,43,16.80
2010,06,29,13,44,16.90
2010,06,29,13,45,17.00
2010,06,29,13,46,17.10
2010,06,29,13,47,17.10
2010,06,29,13,48,17.20
2010,06,29,13,49,17.20
2010,06,29,13,50,17.30
2010,06,29,13,51,17.40
2010,06,29,13,52,17.50
2010,06,29,13,53,17.50
2010,06,29,13,54,17.60
2010,06,29,13,55,17.50
2010,06,29,13,56,17.40
2010,06,29,13,57,17.20
2010,06,29,13,58,17.10
2010,06,29,13,59,17.10
2010,06,29,14,00,17.00
2010,06,29,14,01,16.90
2010,06,29,14,02,17.00
2010,06,29,14,03,17.00
2010,06,29,14,04,17.00
2010,06,29,14,05,17.00
2010,06,29,14,06,17.00
2010,06,29,14,07,17.00
2010,06,29,14,08,17.10
2010,06,29,14,09,17.20
2010,06,29,14,10,17.30
2010,06,29,14,11,17.40
2010,06,29,14,12,17.40
2010,06,29,14,13,17.30
2010,06,29,14,14,17.40
2010,06,29,14,15,17.40
2010,06,29,14,16,17.40
2010,06,29,14,17,17.30
2010,06,29,14,18,17.40
2010,06,29,14,19,17.40
2010,06,29,14,20,17.50
2010,06,29,14,21,17.60
2010,06,29,14,22,17.60
2010,06,29,14,23,17.70
2010,06,29,14,24,17.70
2010,06,29,14,25,17.70
2010,06,29,14,26,17.80
2010,06,29,14,27,17.90
2010,06,29,14,28,18.00
2010,06,29,14,29,18.00
2010,06,29,14,30,18.00
2010,06,29,14,31,18.10
2010,06,29,14,32,18.10
2010,06,29,14,33,18.10
2010,06,29,14,34,18.00
2010,06,29,14,35,17.90
2010,06,29,14,36,17.80
2010,06,29,14,37,17.80
2010,06,29,14,38,17.80
2010,06,29,14,39,17.90
2010,06,29,14,40,18.00
2010,06,29,14,41,18.00
2010,06,29,14,42,18.00
2010,06,29,14,43,17.90
2010,06,29,14,44,17.90
2010,06,29,14,45,17.70
2010,06,29,14,46,17.60
2010,06,29,14,47,17.50
2010,06,29,14,48,17.50
2010,06,29,14,49,17.50
2010,06,29,14,50,17.40
2010,06,29,14,51,17.40
2010,06,29,14,52,17.30
2010,06,29,14,53,17.20
2010,06,29,14,54,17.20
2010,06,29,14,55,17.10
2010,06,29,14,56,17.00
2010,06,29,14,57,16.80
2010,06,29,14,58,16.70
2010,06,29,14,59,16.60
2010,06,29,15,00,16.60
2010,06,29,15,01,16.50
2010,06,29,15,02,16.50
2010,06,29,15,03,16.40
2010,06,29,15,04,16.40
2010,06,29,15,05,16.30
2010,06,29,15,06,16.30
2010,06,29,15,07,16.20
2010,06,29,15,08,16.10
2010,06,29,15,09,16.00
2010,06,29,15,10,16.00
2010,06,29,15,11,15.90
2010,06,29,15,12,15.90
2010,06,29,15,13,15.90
2010,06,29,15,14,15.90
2010,06,29,15,15,15.90
2010,06,29,15,16,15.90
2010,06,29,15,17,15.80
2010,06,29,15,18,15.80
2010,06,29,15,19,15.80
2010,06,29,15,20,15.70
2010,06,29,15,21,15.60
2010,06,29,15,22,15.60
2010,06,29,15,23,15.50
2010,06,29,15,24,15.50
2010,06,29,15,25,15.40
2010,06,29,15,26,15.40
2010,06,29,15,27,15.40
2010,06,29,15,28,15.40
2010,06,29,15,29,15.40
2010,06,29,15,30,15.40
2010,06,29,15,31,15.40
2010,06,29,15,32,15.40
2010,06,29,15,33,15.40
2010,06,29,15,34,15.40
2010,06,29,15,35,15.50
2010,06,29,15,36,15.50
2010,06,29,15,37,15.40
2010,06,29,15,38,15.30
2010,06,29,15,39,15.30
2010,06,29,15,40,15.20
2010,06,29,15,41,15.10
2010,06,29,15,42,15.10
2010,06,29,15,43,15.00
2010,06,29,15,44,15.00
2010,06,29,15,45,15.00
2010,06,29,15,46,14.90
2010,06,29,15,47,14.80
2010,06,29,15,48,14.60
2010,06,29,15,49,14.50
2010,06,29,15,50,14.40
2010,06,29,15,51,14.30
2010,06,29,15,52,14.30
2010,06,29,15,53,14.20
2010,06,29,15,54,14.20
2010,06,29,15,55,14.20
2010,06,29,15,56,14.20
2010,06,29,15,57,14.10
2010,06,29,15,58,14.10
2010,06,29,15,59,14.10
2010,06,29,16,00,14.10
2010,06,29,16,01,14.00
2010,06,29,16,02,14.00
2010,06,29,16,03,13.90
2010,06,29,16,04,13.90
2010,06,29,16,05,13.90
2010,06,29,16,06,13.80
2010,06,29,16,07,13.70
2010,06,29,16,08,13.60
2010,06,29,16,09,13.50
2010,06,29,16,10,13.40
2010,06,29,16,11,13.40
2010,06,29,16,12,13.30
2010,06,29,16,13,13.30
2010,06,29,16,14,13.20
2010,06,29,16,15,13.20
2010,06,29,16,16,13.20
2010,06,29,16,17,13.30
2010,06,29,16,18,13.30
2010,06,29,16,19,13.30
2010,06,29,16,20,13.40
2010,06,29,16,21,13.40
2010,06,29,16,22,13.50
2010,06,29,16,23,13.50
2010,06,29,16,24,13.60
2010,06,29,16,25,13.50
2010,06,29,16,26,13.50
2010,06,29,16,27,13.60
2010,06,29,16,28,13.60
2010,06,29,16,29,13.60
2010,06,29,16,30,13.60
2010,06,29,16,31,13.70
2010,06,29,16,32,13.70
2010,06,29,16,33,13.80
2010,06,29,16,34,13.80
2010,06,29,16,35,13.80
2010,06,29,16,36,13.90
2010,06,29,16,37,13.90
2010,06,29,16,38,13.90
2010,06,29,16,39,14.00
2010,06,29,16,40,14.00
2010,06,29,16,41,14.00
2010,06,29,16,42,14.00
2010,06,29,16,43,14.10
2010,06,29,16,44,14.10
2010,06,29,16,45,14.20
2010,06,29,16,46,14.20
2010,06,29,16,47,14.40
2010,06,29,16,48,14.50
2010,06,29,16,49,14.70
2010,06,29,16,50,14.90
2010,06,29,16,51,15.10
2010,06,29,16,52,15.30
2010,06,29,16,53,15.50
2010,06,29,16,54,15.60
2010,06,29,16,55,15.60
2010,06,29,16,56,15.60
2010,06,29,16,57,15.60
2010,06,29,16,58,15.40
2010,06,29,16,59,15.20
2010,06,29,17,00,15.10
2010,06,29,17,01,14.90
2010,06,29,17,02,14.80
2010,06,29,17,03,14.70
2010,06,29,17,04,14.50
2010,06,29,17,05,14.40
2010,06,29,17,06,14.30
2010,06,29,17,07,14.20
2010,06,29,17,08,14.20
2010,06,29,17,09,14.10
2010,06,29,17,10,14.10
2010,06,29,17,11,14.10
2010,06,29,17,12,14.00
2010,06,29,17,13,14.00
2010,06,29,17,14,14.00
2010,06,29,17,15,14.00
2010,06,29,17,16,14.00
2010,06,29,17,17,14.00
2010,06,29,17,18,14.00
2010,06,29,17,19,14.00
2010,06,29,17,20,14.00
2010,06,29,17,21,13.90
2010,06,29,17,22,13.90
2010,06,29,17,23,13.90
2010,06,29,17,24,13.90
2010,06,29,17,25,14.00
2010,06,29,17,26,14.00
2010,06,29,17,27,14.00
2010,06,29,17,28,14.10
2010,06,29,17,29,14.10
2010,06,29,17,30,14.10
2010,06,29,17,31,14.20
2010,06,29,17,32,14.20
2010,06,29,17,33,14.30
2010,06,29,17,34,14.40
2010,06,29,17,35,14.40
2010,06,29,17,36,14.40
2010,06,29,17,37,14.40
2010,06,29,17,38,14.40
2010,06,29,17,39,14.40
2010,06,29,17,40,14.30
2010,06,29,17,41,14.20
2010,06,29,17,42,14.20
2010,06,29,17,43,14.10
2010,06,29,17,44,14.10
2010,06,29,17,45,14.10
2010,06,29,17,46,14.10
2010,06,29,17,47,14.10
2010,06,29,17,48,14.10
2010,06,29,17,49,14.10
2010,06,29,17,50,14.10
2010,06,29,17,51,14.20
2010,06,29,17,52,14.20
2010,06,29,17,53,14.30
2010,06,29,17,54,14.30
2010,06,29,17,55,14.30
2010,06,29,17,56,14.30
2010,06,29,17,57,14.30
2010,06,29,17,58,14.30
2010,06,29,17,59,14.30
2010,06,29,18,00,14.30
2010,06,29,18,01,14.30
2010,06,29,18,02,14.30
2010,06,29,18,03,14.30
2010,06,29,18,04,14.30
2010,06,29,18,05,14.30
2010,06,29,18,06,14.30
2010,06,29,18,07,14.30
2010,06,29,18,08,14.40
2010,06,29,18,09,14.40
2010,06,29,18,10,14.50
2010,06,29,18,11,14.60
2010,06,29,18,12,14.70
2010,06,29,18,13,14.90
2010,06,29,18,14,14.90
2010,06,29,18,15,15.00
2010,06,29,18,16,15.20
2010,06,29,18,17,15.30
2010,06,29,18,18,15.40
2010,06,29,18,19,15.50
2010,06,29,18,20,15.50
2010,06,29,18,21,15.50
2010,06,29,18,22,15.40
2010,06,29,18,23,15.30
2010,06,29,18,24,15.20
2010,06,29,18,25,15.10
2010,06,29,18,26,15.10
2010,06,29,18,27,15.00
2010,06,29,18,28,15.00
2010,06,29,18,29,14.90
2010,06,29,18,30,14.90
2010,06,29,18,31,14.80
2010,06,29,18,32,14.70
2010,06,29,18,33,14.70
2010,06,29,18,34,14.70
2010,06,29,18,35,14.70
2010,06,29,18,36,14.70
2010,06,29,18,37,14.70
2010,06,29,18,38,14.70
2010,06,29,18,39,14.80
2010,06,29,18,40,14.80
2010,06,29,18,41,14.90
2010,06,29,18,42,14.90
2010,06,29,18,43,15.00
2010,06,29,18,44,15.10
2010,06,29,18,45,15.20
2010,06,29,18,46,15.20
2010,06,29,18,47,15.30
2010,06,29,18,48,15.30
2010,06,29,18,49,15.30
2010,06,29,18,50,15.30
2010,06,29,18,51,15.30
2010,06,29,18,52,15.40
2010,06,29,18,53,15.40
2010,06,29,18,54,15.40
2010,06,29,18,55,15.50
2010,06,29,18,56,15.50
2010,06,29,18,57,15.50
2010,06,29,18,58,15.50
2010,06,29,18,59,15.60
2010,06,29,19,00,15.70
2010,06,29,19,01,15.70
2010,06,29,19,02,15.70
2010,06,29,19,03,15.80
2010,06,29,19,04,15.80
2010,06,29,19,05,15.80
2010,06,29,19,06,15.80
2010,06,29,19,07,15.90
2010,06,29,19,08,15.90
2010,06,29,19,09,15.90
2010,06,29,19,10,15.90
2010,06,29,19,11,15.90
2010,06,29,19,12,15.90
2010,06,29,19,13,15.90
2010,06,29,19,14,15.90
2010,06,29,19,15,16.00
2010,06,29,19,16,16.00
2010,06,29,19,17,16.00
2010,06,29,19,18,16.00
2010,06,29,19,19,16.10
2010,06,29,19,20,16.10
2010,06,29,19,21,16.10
2010,06,29,19,22,16.10
2010,06,29,19,23,16.10
2010,06,29,19,24,16.10
2010,06,29,19,25,16.10
2010,06,29,19,26,16.10
2010,06,29,19,27,16.20
2010,06,29,19,28,16.20
2010,06,29,19,29,16.20
2010,06,29,19,30,16.20
2010,06,29,19,31,16.30
2010,06,29,19,32,16.30
2010,06,29,19,33,16.30
2010,06,29,19,34,16.30
2010,06,29,19,35,16.30
2010,06,29,19,36,16.30
2010,06,29,19,37,16.20
2010,06,29,19,38,16.20
2010,06,29,19,39,16.20
2010,06,29,19,40,16.10
2010,06,29,19,41,16.10
2010,06,29,19,42,16.00
2010,06,29,19,43,16.00
2010,06,29,19,44,15.90
2010,06,29,19,45,15.90
2010,06,29,19,46,15.90
2010,06,29,19,47,15.90
2010,06,29,19,48,15.90
2010,06,29,19,49,15.90
2010,06,29,19,50,15.90
2010,06,29,19,51,15.80
2010,06,29,19,52,15.80
2010,06,29,19,53,15.80
2010,06,29,19,54,15.80
2010,06,29,19,55,15.80
2010,06,29,19,56,15.80
2010,06,29,19,57,15.70
2010,06,29,19,58,15.70
2010,06,29,19,59,15.70
2010,06,29,20,00,15.70
2010,06,29,20,01,15.70
2010,06,29,20,02,15.70
2010,06,29,20,03,15.60
2010,06,29,20,04,15.60
2010,06,29,20,05,15.60
2010,06,29,20,06,15.50
2010,06,29,20,07,15.50
2010,06,29,20,08,15.40
2010,06,29,20,09,15.40
2010,06,29,20,10,15.40
2010,06,29,20,11,15.30
2010,06,29,20,12,15.30
2010,06,29,20,13,15.40
2010,06,29,20,14,15.40
2010,06,29,20,15,15.40
2010,06,29,20,16,15.40
2010,06,29,20,17,15.30
2010,06,29,20,18,15.30
2010,06,29,20,19,15.30
2010,06,29,20,20,15.30
2010,06,29,20,21,15.20
2010,06,29,20,22,15.20
2010,06,29,20,23,15.10
2010,06,29,20,24,15.10
2010,06,29,20,25,15.10
2010,06,29,20,26,15.00
2010,06,29,20,27,15.00
2010,06,29,20,28,15.00
2010,06,29,20,29,15.00
2010,06,29,20,30,14.90
2010,06,29,20,31,14.90
2010,06,29,20,32,14.90
2010,06,29,20,33,14.90
2010,06,29,20,34,14.90
2010,06,29,20,35,14.90
2010,06,29,20,36,14.90
2010,06,29,20,37,14.90
2010,06,29,20,38,14.90
2010,06,29,20,39,14.80
2010,06,29,20,40,14.80
2010,06,29,20,41,14.80
2010,06,29,20,42,14.80
2010,06,29,20,43,14.80
2010,06,29,20,44,14.80
2010,06,29,20,45,14.70
2010,06,29,20,46,14.70
2010,06,29,20,47,14.70
2010,06,29,20,48,14.70
2010,06,29,20,49,14.60
2010,06,29,20,50,14.60
2010,06,29,20,51,14.50
2010,06,29,20,52,14.50
2010,06,29,20,53,14.40
2010,06,29,20,54,14.40
2010,06,29,20,55,14.40
2010,06,29,20,56,14.30
2010,06,29,20,57,14.30
2010,06,29,20,58,14.30
2010,06,29,20,59,14.30
2010,06,29,21,00,14.30
2010,06,29,21,01,14.30
2010,06,29,21,02,14.30
2010,06,29,21,03,14.20
2010,06,29,21,04,14.20
2010,06,29,21,05,14.20
2010,06,29,21,06,14.20
2010,06,29,21,07,14.10
2010,06,29,21,08,14.10
2010,06,29,21,09,14.10
2010,06,29,21,10,14.10
2010,06,29,21,11,14.00
2010,06,29,21,12,14.00
2010,06,29,21,13,14.00
2010,06,29,21,14,13.90
2010,06,29,21,15,13.90
2010,06,29,21,16,13.90
2010,06,29,21,17,13.90
2010,06,29,21,18,13.80
2010,06,29,21,19,13.80
2010,06,29,21,20,13.80
2010,06,29,21,21,13.80
2010,06,29,21,22,13.80
2010,06,29,21,23,13.80
2010,06,29,21,24,13.70
2010,06,29,21,25,13.70
2010,06,29,21,26,13.70
2010,06,29,21,27,13.70
2010,06,29,21,28,13.70
2010,06,29,21,29,13.70
2010,06,29,21,30,13.60
2010,06,29,21,31,13.60
2010,06,29,21,32,13.60
2010,06,29,21,33,13.60
2010,06,29,21,34,13.60
2010,06,29,21,35,13.50
2010,06,29,21,36,13.50
2010,06,29,21,37,13.50
2010,06,29,21,38,13.50
2010,06,29,21,39,13.40
2010,06,29,21,40,13.40
2010,06,29,21,41,13.40
2010,06,29,21,42,13.40
2010,06,29,21,43,13.40
2010,06,29,21,44,13.30
2010,06,29,21,45,13.30
2010,06,29,21,46,13.30
2010,06,29,21,47,13.30
2010,06,29,21,48,13.30
2010,06,29,21,49,13.20
2010,06,29,21,50,13.20
2010,06,29,21,51,13.20
2010,06,29,21,52,13.20
2010,06,29,21,53,13.20
2010,06,29,21,54,13.20
2010,06,29,21,55,13.20
2010,06,29,21,56,13.10
2010,06,29,21,57,13.10
2010,06,29,21,58,13.10
2010,06,29,21,59,13.10
2010,06,29,22,00,13.10
2010,06,29,22,01,13.10
2010,06,29,22,02,13.00
2010,06,29,22,03,13.00
2010,06,29,22,04,13.00
2010,06,29,22,05,13.00
2010,06,29,22,06,12.90
2010,06,29,22,07,12.90
2010,06,29,22,08,12.90
2010,06,29,22,09,12.90
2010,06,29,22,10,12.90
2010,06,29,22,11,12.90
2010,06,29,22,12,12.80
2010,06,29,22,13,12.80
2010,06,29,22,14,12.80
2010,06,29,22,15,12.80
2010,06,29,22,16,12.80
2010,06,29,22,17,12.80
2010,06,29,22,18,12.80
2010,06,29,22,19,12.70
2010,06,29,22,20,12.70
2010,06,29,22,21,12.70
2010,06,29,22,22,12.70
2010,06,29,22,23,12.70
2010,06,29,22,24,12.70
2010,06,29,22,25,12.70
2010,06,29,22,26,12.70
2010,06,29,22,27,12.70
2010,06,29,22,28,12.60
2010,06,29,22,29,12.60
2010,06,29,22,30,12.60
2010,06,29,22,31,12.60
2010,06,29,22,32,12.60
2010,06,29,22,33,12.60
2010,06,29,22,34,12.50
2010,06,29,22,35,12.50
2010,06,29,22,36,12.50
2010,06,29,22,37,12.50
2010,06,29,22,38,12.50
2010,06,29,22,39,12.40
2010,06,29,22,40,12.40
2010,06,29,22,41,12.40
2010,06,29,22,42,12.40
2010,06,29,22,43,12.40
2010,06,29,22,44,12.30
2010,06,29,22,45,12.30
2010,06,29,22,46,12.30
2010,06,29,22,47,12.30
2010,06,29,22,48,12.30
2010,06,29,22,49,12.30
2010,06,29,22,50,12.20
2010,06,29,22,51,12.20
2010,06,29,22,52,12.20
2010,06,29,22,53,12.20
2010,06,29,22,54,12.20
2010,06,29,22,55,12.20
2010,06,29,22,56,12.20
2010,06,29,22,57,12.20
2010,06,29,22,58,12.10
2010,06,29,22,59,12.10
2010,06,29,23,00,12.10
2010,06,29,23,01,12.10
2010,06,29,23,02,12.10
2010,06,29,23,03,12.00
2010,06,29,23,04,12.00
2010,06,29,23,05,12.00
2010,06,29,23,06,11.90
2010,06,29,23,07,11.90
2010,06,29,23,08,11.90
2010,06,29,23,09,11.80
2010,06,29,23,10,11.80
2010,06,29,23,11,11.80
2010,06,29,23,12,11.80
2010,06,29,23,13,11.80
2010,06,29,23,14,11.80
2010,06,29,23,15,11.80
2010,06,29,23,16,11.80
2010,06,29,23,17,11.80
2010,06,29,23,18,11.70
2010,06,29,23,19,11.70
2010,06,29,23,20,11.70
2010,06,29,23,21,11.70
2010,06,29,23,22,11.70
2010,06,29,23,23,11.70
2010,06,29,23,24,11.60
2010,06,29,23,25,11.60
2010,06,29,23,26,11.60
2010,06,29,23,27,11.60
2010,06,29,23,28,11.60
2010,06,29,23,29,11.60
2010,06,29,23,30,11.60
2010,06,29,23,31,11.60